Regional Weather Roundup
Issued by NWS

Home | Current Version | Previous Version | Text Only | Print | Product List | Glossary Off
Versions: 1 2 3 4 5 6 7 8 9 10 11 12 13 14 15 16 17 18 19 20 21 22 23 24 25 26 27 28 29 30 31 32 33 34 35 36 37 38 39 40 41 42 43 44 45 46 47 48 49 50

000
ASUS43 KDTX 031210
RWRMI
MICHIGAN HOURLY REGIONAL WEATHER ROUNDUP
NATIONAL WEATHER SERVICE DETROIT/PONTIAC MI
800 AM EDT THU SEP 03 2015

NOTE: "FAIR" INDICATES FEW OR NO CLOUDS BELOW 12,000 FEET WITH NO
SIGNIFICANT WEATHER AND/OR OBSTRUCTION TO VISIBILITY.

MIZ047>049-052>055-059>063-066>070-074>076-081>083-031300-
SOUTHEAST LOWER MICHIGAN

CITY           SKY/WX    TMP DP  RH WIND       PRES   REMARKS
ADRIAN         PTCLDY    71  69  93 CALM      30.00S FOG
6HR MIN TEMP:  67; 6HR MAX TEMP:  71;

ALMA           MOCLDY    69  67  94 CALM      29.96S FOG
ANN ARBOR      CLEAR     67  65  93 CALM      29.99R FOG
BAD AXE        CLOUDY    65  65  99 CALM      29.98R FOG
6HR MIN TEMP:  61; 6HR MAX TEMP:  66;

DETROIT CITY   MOSUNNY   71  67  87 CALM      29.99R
6HR MIN TEMP:  69; 6HR MAX TEMP:  75;

DETROIT        MOSUNNY   72  69  90 CALM      29.99S FOG
6HR MIN TEMP:  70; 6HR MAX TEMP:  74;

FLINT          CLEAR     70  66  87 S5        29.98R FOG
6HR MIN TEMP:  66; 6HR MAX TEMP:  72;

GROSSE ILE     SUNNY     70  66  88 CALM      29.97S FOG
HILLSDALE      PTCLDY    71  71  99 CALM      30.01S
6HR MIN TEMP:  67; 6HR MAX TEMP:  73;

HOWELL         CLEAR     69  68  96 CALM      29.98S FOG

CITY           SKY/WX    TMP DP  RH WIND       PRES   REMARKS
JACKSON        CLEAR     67  66  97 CALM      29.99S FOG
6HR MIN TEMP:  67; 6HR MAX TEMP:  70;

LAMBERTVILLE   CLEAR     70  67  91 CALM      29.99S FOG
6HR MIN TEMP:  69; 6HR MAX TEMP:  73;

LANSING        PTCLDY    70  68  93 S5        29.97S FOG
6HR MIN TEMP:  67; 6HR MAX TEMP:  73; 6HR PCP:  0.13;

LAPEER         NOT AVBL
MASON          CLEAR     68  65  92 S3        29.98S FOG
6HR MIN TEMP:  66; 6HR MAX TEMP:  70;

MONROE         SUNNY     68  67  95 CALM      29.99R FOG
6HR MIN TEMP:  67; 6HR MAX TEMP:  71;

MT. CLEMENS    MOSUNNY   66  65  96 CALM      29.96S
6HR MIN TEMP:  66; 6HR MAX TEMP:  70;

PONTIAC        SUNNY     69  67  93 CALM      29.99R
6HR MIN TEMP:  66; 6HR MAX TEMP:  70;

PORT HOPE        N/A     67  67 100 CALM      29.96R
6HR MIN TEMP:  65; 6HR MAX TEMP:  69;

PORT HURON     SUNNY     64  64 100 CALM      29.98S FOG
TRI CITIES     PTCLDY    68  65  90 SE7       29.96S FOG
6HR MIN TEMP:  66; 6HR MAX TEMP:  70;

YPSILANTI      CLEAR     71  67  87 CALM      29.99S
6HR MIN TEMP:  68; 6HR MAX TEMP:  75;

$$
MIZ043>046-050>051-056>058-064>065-071>073-077>080-031300-
SOUTHWEST LOWER MICHIGAN

CITY           SKY/WX    TMP DP  RH WIND       PRES   REMARKS
BATTLE CREEK   CLEAR     71  67  87 S6        29.98S FOG
6HR MIN TEMP:  69; 6HR MAX TEMP:  76;

BENTON HARBOR  CLEAR     70  67  90 CALM      29.96S FOG
6HR MIN TEMP:  68; 6HR MAX TEMP:  72;

BIG RAPIDS     CLOUDY    69  68  97 CALM      29.94R FOG
6HR MIN TEMP:  65; 6HR MAX TEMP:  69; 6HR PCP:  0.01;

COLDWATER      CLEAR     71  69  93 CALM      29.99S FOG
6HR MIN TEMP:  67; 6HR MAX TEMP:  71;

HOLLAND        PTCLDY    74  69  85 SW8       29.94F
6HR MIN TEMP:  68; 6HR MAX TEMP:  74;

GRAND RAPIDS   MOCLDY    71  70  96 S5        29.95S FOG
6HR MIN TEMP:  70; 6HR MAX TEMP:  76; 6HR PCP: TRACE;

KALAMAZOO      CLEAR     71  67  87 SW6       29.98R
6HR MIN TEMP:  69; 6HR MAX TEMP:  72;

MARSHALL       CLEAR     69  67  94 CALM      29.98S FOG
MUSKEGON       MOCLDY    74  68  81 SW10      29.93R
6HR MIN TEMP:  71; 6HR MAX TEMP:  76; 6HR PCP: TRACE;

$$
MIZ016>042-031300-
NORTHERN LOWER MICHIGAN

CITY           SKY/WX    TMP DP  RH WIND       PRES   REMARKS
ALPENA         PTCLDY    64  62  93 CALM      29.97R
6HR MIN TEMP:  62; 6HR MAX TEMP:  66;

BEAVER ISLAND  CLOUDY    66  64  92 E12       29.95R
6HR MIN TEMP:  64; 6HR MAX TEMP:  67;

BELLAIRE       RAIN      66  64  93 NE3       29.95S
6HR MIN TEMP:  65; 6HR MAX TEMP:  70;

CADILLAC       HVY RAIN  67  66  96 W9        29.95S
CHARLEVOIX     LGT RAIN  66  65  97 E10       29.97F
6HR MIN TEMP:  64; 6HR MAX TEMP:  71;

FRANKFORT      CLOUDY    67  66  97 SE3       29.90R
GAYLORD        LGT RAIN  65  65 100 N8        29.99R
6HR MIN TEMP:  65; 6HR MAX TEMP:  71; 6HR PCP:  0.50;

GRAYLING       HVY RAIN  65  64  96 N9G20     29.96S VSB 1
6HR MIN TEMP:  59; 6HR MAX TEMP:  65;

HARBOR SPRINGS RAIN      64  63  96 E6        29.97R
HOUGHTON LAKE  CLOUDY    67  64  90 S3        29.96F
6HR MIN TEMP:  59; 6HR MAX TEMP:  67;

MANISTEE       CLOUDY    66  63  88 CALM      29.91S
OSCODA         MOSUNNY   65  64  98 CALM      29.96R
6HR MIN TEMP:  63; 6HR MAX TEMP:  68;

PELLSTON       RAIN      66  64  93 CALM      29.98S
6HR MIN TEMP:  65; 6HR MAX TEMP:  70; 6HR PCP:  0.73;

TRAVERSE CITY  TSTM      69  67  93 E6        29.91F FOG
6HR MIN TEMP:  69; 6HR MAX TEMP:  73;

$$
MIZ007>008-015-031300-
EASTERN UPPER MICHIGAN

CITY           SKY/WX    TMP DP  RH WIND       PRES   REMARKS
KINROSS        CLOUDY    64  64 100 CALM      29.99S
6HR MIN TEMP:  63; 6HR MAX TEMP:  66;

MACKINAC ISLAN RAIN      65  64  96 CALM      30.00R
NEWBERRY       MOCLDY    64  63  97 SE8       29.96S
6HR MIN TEMP:  62; 6HR MAX TEMP:  65; 6HR PCP:  0.12;

S. S. MARIE    CLOUDY    66  63  90 SW3       29.99R
6HR MIN TEMP:  65; 6HR MAX TEMP:  66; 6HR PCP:  0.01;

$$
MIZ004>006-011>014-085-031300-
CENTRAL UPPER MICHIGAN

CITY           SKY/WX    TMP DP  RH WIND       PRES   REMARKS
MANISTIQUE     MOCLDY    66  63  89 E7        29.94R
6HR MIN TEMP:  64; 6HR MAX TEMP:  66; 6HR PCP:  0.19;

ESCANABA       CLOUDY    66  64  94 NE5       29.93R
6HR MIN TEMP:  66; 6HR MAX TEMP:  66; 6HR PCP:  0.20;

MENOMINEE      CLOUDY    66  63  88 NE9       29.91R
6HR MIN TEMP:  66; 6HR MAX TEMP:  66; 6HR PCP:  0.06;

SAWYER-GWINN   CLOUDY    63  61  94 N3        29.99R
$$
MIZ001>003-009>011-084-031300-
WESTERN UPPER MICHIGAN

CITY           SKY/WX    TMP DP  RH WIND       PRES   REMARKS
IRON MOUNTAIN  CLOUDY    65  63  93 N7        29.96R FOG
6HR MIN TEMP:  65; 6HR MAX TEMP:  67; 6HR PCP: TRACE;

HOUGHTON       FOG       62  61  96 E3        29.99R VSB<1/4
6HR MIN TEMP:  60; 6HR MAX TEMP:  63;

COPPER HARBOR    N/A     56  54  93 CALM      29.99R
6HR MIN TEMP:  55; 6HR MAX TEMP:  61;

IRONWOOD       CLOUDY    57  57 100 CALM      29.97R VSB<1/4
6HR MIN TEMP:  54; 6HR MAX TEMP:  59;

$$

ABBREVIATIONS USED IN REMARKS
   TC - TEMPERATURE IN CELSIUS
  WCI - WIND CHILL INDEX
   HX - HEAT INDEX
  VSB - VISIBILITY



USA.gov is the U.S. government's official web portal to all federal, state and local government web resources and services.